Weather History for KRBL - June, 2014

Change the Weather History Date:

Saturday, June 7, 2014

  Actual Average (KRDD) Record (KRDD)
Temperature  
Mean Temperature 87 °F -  
Max Temperature 106 °F 88 °F 109 °F (2013)
Min Temperature 68 °F 60 °F 45 °F (1999)
Degree Days  
Heating Degree Days 0    
Cooling Degree Days 22    
Growing Degree Days 37 (Base 50)    
Moisture  
Dew Point 40 °F    
Average Humidity 24    
Maximum Humidity 66    
Minimum Humidity 4    
Precipitation  
Precipitation 0.00 in 0.04 in 1.24 in (1988)
Month to date precipitation 0.29  
Year to date precipitation 20.46  
Sea Level Pressure  
Sea Level Pressure 29.73 in    
Wind  
Wind Speed 10 mph (North)    
Max Wind Speed 17 mph    
Max Gust Speed 25 mph    
Visibility 10 miles    
Events      
T = Trace of Precipitation, MM = Missing Value Source: NWS Daily Summary

Daily Weather History Graph

Daily Weather History Graph

Search for Another Location

Airport or City:

Trip Planner

Search our weather history database for the weather conditions in past years. The results will help you decide how hot, cold, wet, or windy it might be!

Date:

Astronomy

Jun. 07, 2014 Rise Set
Actual Time 5:39 AM PDT 8:36 PM PDT
Civil Twilight 5:07 AM PDT 9:08 PM PDT
Nautical Twilight 4:25 AM PDT 9:50 PM PDT
Astronomical Twilight 3:38 AM PDT 10:38 PM PDT
Moon 2:59 PM PDT (6/7) 2:04 AM PDT (6/7)
Length of Visible Light 16h 01m
Length of Day
14h 56m
Waxing Gibbous, 69% of the Moon is Illuminated
Jun 7
Waxing Gibbous
Jun 12
Full
Jun 19
Last Quarter
Jun 27
New
Jul 5
First Quarter

Hourly Weather History & Observations

Time (PDT) Temp. Dew Point Humidity Pressure Visibility Wind Dir Wind Speed Gust Speed Precip Events Conditions
12:54 AM 73.9 °F 60.1 °F 62% 29.73 in 10.0 mi NW 5.8 mph - N/A   Clear
1:54 AM 72.0 °F 59.0 °F 64% 29.74 in 10.0 mi North 4.6 mph - N/A   Clear
2:54 AM 71.1 °F 59.0 °F 66% 29.74 in 10.0 mi NW 5.8 mph - N/A   Clear
3:54 AM 71.1 °F 57.0 °F 61% 29.75 in 10.0 mi NW 9.2 mph - N/A   Clear
4:54 AM 69.8 °F 53.6 °F 56% 29.77 in 10.0 mi North 8.1 mph - N/A   Clear
5:54 AM 69.8 °F 48.2 °F 46% 29.76 in 10.0 mi NW 8.1 mph - N/A   Clear
6:54 AM 73.0 °F 46.9 °F 39% 29.77 in 10.0 mi NNE 4.6 mph - N/A   Clear
7:54 AM 82.0 °F 43.0 °F 25% 29.77 in 10.0 mi North 9.2 mph - N/A   Clear
8:54 AM 88.0 °F 37.9 °F 17% 29.77 in 10.0 mi North 13.8 mph 23.0 mph N/A   Clear
9:54 AM 91.0 °F 37.0 °F 15% 29.76 in 10.0 mi NNW 15.0 mph 23.0 mph N/A   Clear
10:54 AM 95.0 °F 37.0 °F 13% 29.75 in 10.0 mi North 17.3 mph - N/A   Clear
11:54 AM 97.0 °F 37.0 °F 12% 29.74 in 10.0 mi North 13.8 mph - N/A   Clear
12:54 PM 100.0 °F 35.1 °F 10% 29.72 in 10.0 mi North 17.3 mph - N/A   Clear
1:54 PM 102.9 °F 35.1 °F 10% 29.70 in 10.0 mi NNW 13.8 mph - N/A   Clear
2:54 PM 105.1 °F 34.0 °F 9% 29.69 in 10.0 mi North 15.0 mph 20.7 mph N/A   Clear
3:54 PM 106.0 °F 28.0 °F 7% 29.68 in 10.0 mi North 12.7 mph - N/A   Clear
4:54 PM 106.0 °F 28.0 °F 7% 29.67 in 10.0 mi NNE 15.0 mph - N/A   Clear
5:54 PM 104.0 °F 28.0 °F 7% 29.67 in 10.0 mi NNE 15.0 mph 23.0 mph N/A   Clear
6:54 PM 102.9 °F 28.0 °F 7% 29.67 in 10.0 mi NNE 17.3 mph - N/A   Clear
7:54 PM 99.0 °F 30.9 °F 9% 29.68 in 10.0 mi North 12.7 mph - N/A   Clear
8:54 PM 93.0 °F 36.0 °F 13% 29.69 in 10.0 mi North 10.4 mph - N/A   Clear
9:54 PM 91.9 °F 36.0 °F 14% 29.73 in 10.0 mi North 17.3 mph - N/A   Clear
10:54 PM 90.0 °F 35.1 °F 14% 29.74 in 10.0 mi North 17.3 mph 25.3 mph N/A   Clear
11:54 PM 88.0 °F 37.0 °F 16% 29.76 in 10.0 mi NNW 12.7 mph - N/A   Clear